ONEWEB-0061, 45428

Orbit data source: Space-Track

ONEWEB-0061, 45428 is a payload satellite owned by One Web (UK) in LEO that was launched on Sat, 21 Mar 2020 UTC via a SOYUZ-2-1B launch vehicle from the Tyuratam Missile And Space Complex (TTMTR). Payload-class satellites include a variety of spacecraft equipped with specific instruments for various scientific and technological missions. These include communications satellites like Starlink; space stations such as the ISS; scientific satellites like the Hubble; Earth observation satellites from companies like Planet Labs, Umbra, and HawkEye 360; GPS; miniature CubeSats for education and research; and military/defense satellites.

Loading next visibility...
Identifier
45428, 2020-020E
Orbit
LEO
Country
Flag of UKUK
Related business
Manufacturer
One Web
Mission
Operational Commercial Communications
Bus & Motor
ARROW, Unknown motor
Mass
148 kg wet, ~140 kg dry
Launch date (UTC)
2020-03-21 (6 years ago)
Launch vehicle
SOYUZ-2-1B
Launch site
Tyuratam Missile And Space Complex (TTMTR)
Object type
Payload
Rocket body
Debris
Shape & HBR
Trap Box + 2 Pan, 6.7 m
Radar Cross Section
3.464 m², Large (>1 m²)

Expand to show TLE details & history
Last TLE update: 12 hours ago

TLE from 12 hours ago
0 ONEWEB-0061
1 45428U 20020E   25310.30573794  .00000432  00000-0  11836-2 0  9996
2 45428  87.8864  65.4281 0001607 103.0950 257.0357 13.11418451273419
Epoch: 2025-11-06T07:20Z
TLE epoch observation values (Epoch: 2025-11-06T07:20:15.758Z)
Latitude
-0.00003°
Longitude
-90.40352°
Altitude
1,220.84 km
Speed
7.244 km/s
True Right ascension
04h 21m 42s
True Declination
0° 00' 00"
Sunlit
Object was in full shadow at epoch
Visualization orbit readout
Latitude
Unknown
Longitude
Unknown
Altitude
Unknown
Speed
Unknown
Apparent Right ascension
Unknown
Apparent Declination
Unknown
Sunlit
N/A
Visualization observer readout
Local Sidereal Time
15:31:01
Azimuth
Unknown
Elevation
Unknown
Doppler factor
Unknown
Orbital elements
Apogee altitude
1,216.015 km
Perigee altitude
1,213.575 km
Semi-major axis
7,592.932 km
Eccentricity
0.00016
Inclination
87.8864°
RAAN
65.4281°
Arg. of periapsis
103.095°
True anomaly
257.01776°
Mean anomaly
257.0357°
Eccentric anomaly
257.02673°
Mean motion
3.28042 °/min
Orbital period
109.74 mins
BSTAR
0.0011836
Loading maneuver chart data...
Computing Atmospheric mass density...
Loading historical data...
Loading historical data...
Loading historical data...
Loading historical data...
Loading historical data...
Loading historical data...
Loading historical data...

Documentation

Showing up to 5 results
|